This is the latest recevied weather packets stored in our database for station/object VU35KB-13. If no packets are shown the sender has not sent any weather packets the latest 10 day(s).
| Time | Temp. | Humidity | Pressure | Rain* | Wind** | Luminosity | Snow |
|---|---|---|---|---|---|---|---|
| 1788158678 | 79° F | 72% | 682.6 mmHg | - | - | - | - |
| 1788157774 | 80° F | 70% | 682.8 mmHg | - | - | - | - |
| 1788156870 | 80° F | 70% | 682.9 mmHg | - | - | - | - |
| 1788155966 | 80° F | 70% | 682.9 mmHg | - | - | - | - |
| 1788155062 | 80° F | 71% | 683.1 mmHg | - | - | - | - |
| 1788154157 | 80° F | 72% | 683.2 mmHg | - | - | - | - |
| 1788153253 | 78° F | 73% | 683.2 mmHg | - | - | - | - |
| 1788152349 | 78° F | 72% | 683.2 mmHg | - | - | - | - |
| 1788151445 | 79° F | 72% | 683.3 mmHg | - | - | - | - |
| 1788150540 | 79° F | 73% | 683.4 mmHg | - | - | - | - |
| 1788149637 | 78° F | 73% | 683.4 mmHg | - | - | - | - |
| 1788148732 | 78° F | 75% | 683.5 mmHg | - | - | - | - |
| 1788147829 | 79° F | 74% | 683.5 mmHg | - | - | - | - |
| 1788146925 | 80° F | 73% | 683.6 mmHg | - | - | - | - |
| 1788146020 | 79° F | 73% | 683.6 mmHg | - | - | - | - |
| 1788145116 | 77° F | 76% | 683.5 mmHg | - | - | - | - |
| 1788144213 | 77° F | 76% | 683.4 mmHg | - | - | - | - |
| 1788143308 | 79° F | 79% | 683.3 mmHg | - | - | - | - |
| 1788142404 | 80° F | 79% | 683.3 mmHg | - | - | - | - |
| 1788141500 | 80° F | 72% | 683.1 mmHg | - | - | - | - |
| 1788140596 | 80° F | 74% | 682.9 mmHg | - | - | - | - |
| 1788139692 | 80° F | 76% | 682.9 mmHg | - | - | - | - |
| 1788138787 | 80° F | 79% | 682.6 mmHg | - | - | - | - |
| 1788137883 | 80° F | 76% | 682.5 mmHg | - | - | - | - |
| 1788136980 | 81° F | 76% | 682.6 mmHg | - | - | - | - |
* Rain since midnight (hover to see other rain measurements)
** Current wind speed in m/s (hover to see current wind gust speed)